FENGYUN 1C DEB, 33697

Orbit data source: Space-Track

FENGYUN 1C DEB, 33697 is space debris in SSO originally from a launch on Mon, 10 May 1999 UTC launched from the Taiyaun Space Center, China (TSC). Fengyun 1C debris stems from the Chinese weather satellite Fengyun-1C, which was intentionally destroyed by a Chinese anti-satellite missile in 2007. This event dramatically increased the amount of space debris, with thousands of trackable fragments posing hazards to satellites and human spaceflight. The Fengyun 1C debris cloud has become a focal point in discussions about space sustainability and the need for international regulations to prevent the creation of new debris.

Loading next visibility...
Identifier
33697, 1999-025DGJ
Orbit
SSO
Country
Flag of CNCN / PRC
Related business
Manufacturer
Unknown
Mission
Spacecraft
Bus & Motor
Unknown
Mass
Unknown
Launch date (UTC)
1999-05-10 (27 years ago)
Launch vehicle
Unknown
Launch site
Taiyaun Space Center, China (TSC)
Object type
Payload
Rocket body
Debris
Shape & HBR
Unknown shape, 1.1 m
Radar Cross Section
Medium (>0.1 m² and <1 m²)

Expand to show TLE details & history
Last TLE update: 3 days ago

TLE from 3 days ago
0 FENGYUN 1C DEB
1 33697U 99025DGJ 26260.51988984  .00002044  00000-0  10467-2 0  9991
2 33697  99.0110   8.6972 0072062 188.3660 171.6317 14.15288419971546
Epoch: 2026-09-17T12:28Z
TLE epoch observation values (Epoch: 2026-09-17T12:28:38.482Z)
Latitude
0.00001°
Longitude
-174.9191°
Altitude
895.719 km
Speed
7.378 km/s
True Right ascension
00h 34m 47s
True Declination
0° 00' 00"
Sunlit
Object was in full shadow at epoch
Visualization orbit readout
Latitude
Unknown
Longitude
Unknown
Altitude
Unknown
Speed
Unknown
Apparent Right ascension
Unknown
Apparent Declination
Unknown
Sunlit
N/A
Visualization observer readout
Local Sidereal Time
14:00:11
Azimuth
Unknown
Elevation
Unknown
Doppler factor
Unknown
Orbital elements
Apogee altitude
890.515 km
Perigee altitude
786.506 km
Semi-major axis
7,216.647 km
Eccentricity
0.00721
Inclination
99.011°
RAAN
8.6972°
Arg. of periapsis
188.366°
True anomaly
171.75082°
Mean anomaly
171.6317°
Eccentric anomaly
171.69136°
Mean motion
3.5403 °/min
Orbital period
101.69 mins
BSTAR
0.0010467
Loading maneuver chart data...
Computing Atmospheric mass density...

Documentation

Showing up to 5 results
|